Location: Newark
(34.6283°N, 36.0776°E)
Time: 12:16:15
(UTC+00:00)

Courier 1B Rocket - Pass Details

Date: 25 September 2019
Orbit: 920 x 1202 km, 28.2° (Epoch: 15 October)

Event Time Altitude Azimuth Distance (km) Brightness Sun altitude
Rises 17:23:34 0° 259° (W) 3,845 9.1 -24.1°
Reaches altitude 10° 17:29:19 10° 223° (SW) 2,797 7.7 -25.3°
Maximum altitude 17:30:32 11° 212° (SSW) 2,741 7.5 -25.5°
Drops below altitude 10° 17:31:44 10° 202° (SSW) 2,759 7.4 -25.7°
Enters shadow 17:34:03 - 183° (S) 2,991 7.4 -26.2°
